Content
SEND FEEDBACK

Daily
Averages
Monthly
Summary
United States of America

ACHANG BAY, GUAM


Home > North America > United States > Guam
Elevation: 10 meters     Latitude: 13 16N     Longitude: 144 45E

WEATHER
 
SELECT A DAY
Number of Records: 354,060;   Date Range: 1/1/95 - 11/19/14
 
SHARE

PRINT THIS DATA

[ ← Previous Day ]
WEATHER ALMANAC - 14 AUGUST, 2013
[ Next Day → ]
[ °F ]   °C
Weather ElementAverageHighLow
Temperature26.8 °C29.7 °C (2:55 pm)24.5 °C (4:55 am)
Dewpoint24 °C25 °C (7:57 am)22 °C (7:02 am)
Humidity84.8 %96 % (2:55 am)74 % (9:53 am)
Barometer1010.2 hPa1011.2 hPa (8:18 am)1008.5 hPa (2:55 pm)
Wind Speed8.4 km/h18.5 km/h (3:55 pm)
Weather ElementAverage
Visibility14.6 km
Wind DirectionESE (105.4 °)

Weather ElementTotal
Precipitation3.05 mm
Cooling Degree Days8.8 (Base 18.3)
Growing Degree Days17.1 (Base 10)
Averaged from 48 records on 14 August, 2013
WEATHER CONDITIONS BREAKOUT
WIND DIRECTION BREAKOUT
WEATHER BY HOUR - 14 AUGUST, 2013
[ °F ]   °C
Local TimeTemperatureDewpointHumidityBarometerVisibilityWind DirectionWind SpeedGust SpeedPrecipitationEventsConditions
1:55 AM25.3 °C24.1 °C93 %1009.5 hPa16.1 kmCalmClear
2:55 AM24.9 °C24.2 °C96 %1009.5 hPa16.1 kmCalmOvercast
3:55 AM25.1 °C24 °C94 %1009.5 hPa16.1 kmCalmOvercast
4:55 AM24.5 °C23.8 °C96 %1009.5 hPa16.1 kmCalmPartly Cloudy
5:55 AM25.1 °C24.1 °C94 %1009.5 hPa16.1 kmCalmMostly Cloudy
6:36 AM25 °C24 °C94 %1009.8 hPa16.1 kmESE (110°)9.3 km/hMostly Cloudy
6:46 AM25 °C24 °C94 %1010.2 hPa16.1 kmEast (100°)13 km/hMostly Cloudy
6:48 AM25 °C24 °C94 %1010.2 hPa16.1 kmEast (100°)13 km/hLight Drizzle
6:50 AM25 °C24 °C94 %1010.2 hPa16.1 kmEast (90°)13 km/hLight Drizzle
6:55 AM24.9 °C23.3 °C91 %1010.2 hPa9.7 kmEast (90°)14.8 km/h0.51 mmRainLight Rain
6:59 AM25 °C23 °C89 %1010.2 hPa4 kmNE (50°)13 km/hRainHeavy Rain
7:02 AM25 °C22 °C83 %1010.2 hPa3.2 kmCalmRainHeavy Rain
7:06 AM25 °C23 °C89 %1010.2 hPa4 kmCalmRainLight Rain
7:07 AM25 °C23 °C89 %1010.2 hPa4.8 kmCalmRainLight Rain
7:14 AM25 °C23 °C89 %1010.5 hPa12.9 kmCalmRainLight Rain
7:22 AM26 °C23 °C83 %1010.5 hPa16.1 kmCalmScattered Clouds
7:55 AM26.4 °C24.6 °C90 %1010.8 hPa16.1 kmWNW (300°)7.4 km/h1.52 mmMostly Cloudy
7:57 AM26 °C25 °C94 %1010.8 hPa16.1 kmNW (310°)5.6 km/hMostly Cloudy
8:18 AM26 °C25 °C94 %1011.2 hPa16.1 kmNorth (360°)16.7 km/hLight Drizzle
8:33 AM25 °C24 °C94 %1011.2 hPa6.4 kmNorth (360°)13 km/hRainLight Rain
8:37 AM25 °C23 °C89 %1011.2 hPa14.5 kmNorth (360°)11.1 km/hRainLight Rain
8:40 AM25 °C23 °C89 %1011.2 hPa16.1 kmNNW (340°)9.3 km/hMostly Cloudy
8:55 AM26.3 °C23.4 °C84 %1011.2 hPa16.1 kmNW (310°)5.6 km/h0.76 mmScattered Clouds
9:53 AM29 °C24 °C74 %1011.2 hPa16.1 kmVariable5.6 km/hMostly Cloudy
9:55 AM28.9 °C24.5 °C77 %1011.2 hPa16.1 kmNNE (20°)9.3 km/h0.25 mmMostly Cloudy
10:42 AM28 °C24 °C79 %1010.5 hPa16.1 kmNNE (20°)7.4 km/hMostly Cloudy
10:43 AM28 °C24 °C79 %1010.5 hPa16.1 kmNNE (30°)9.3 km/hMostly Cloudy
10:44 AM28 °C24 °C79 %1010.5 hPa16.1 kmNNE (30°)9.3 km/hMostly Cloudy
10:47 AM28 °C25 °C84 %1010.5 hPa16.1 kmNNE (20°)9.3 km/hMostly Cloudy
10:55 AM28.4 °C24.6 °C80 %1010.5 hPa16.1 kmENE (60°)9.3 km/hOvercast
11:08 AM29 °C24 °C74 %1010.5 hPa16.1 kmNE (50°)7.4 km/hMostly Cloudy
11:55 AM29.2 °C24.8 °C77 %1009.8 hPa16.1 kmEast (90°)13 km/hMostly Cloudy
12:55 PM29.4 °C24.6 °C75 %1009.1 hPa16.1 kmESE (120°)11.1 km/hMostly Cloudy
1:55 PM29.5 °C24.8 °C76 %1008.8 hPa16.1 kmSE (130°)14.8 km/hPartly Cloudy
2:55 PM29.7 °C24.9 °C75 %1008.5 hPa16.1 kmEast (90°)16.7 km/hPartly Cloudy
3:55 PM29.1 °C24.5 °C76 %1008.5 hPa16.1 kmSE (140°)18.5 km/hPartly Cloudy
4:55 PM28.7 °C24.4 °C77 %1008.8 hPa16.1 kmVariable11.1 km/hScattered Clouds
5:06 PM29 °C24 °C74 %1009.1 hPa16.1 kmSE (130°)9.3 km/hMostly Cloudy
5:08 PM29 °C24 °C74 %1009.1 hPa16.1 kmSE (130°)11.1 km/hScattered Clouds
5:55 PM28.4 °C24.6 °C80 %1009.5 hPa16.1 kmSE (130°)9.3 km/hClear
6:12 PM28 °C25 °C84 %1009.5 hPa16.1 kmSE (130°)14.8 km/hMostly Cloudy
6:15 PM28 °C25 °C84 %1009.5 hPa16.1 kmSSE (150°)13 km/hScattered Clouds
6:55 PM27.5 °C23.8 °C80 %1010.2 hPa16.1 kmSE (140°)11.1 km/hClear
7:55 PM27.2 °C23.9 °C82 %1010.5 hPa16.1 kmSE (140°)11.1 km/hClear
8:55 PM26.8 °C23.8 °C84 %1010.8 hPa16.1 kmSSE (150°)7.4 km/hClear
9:55 PM26.8 °C23.7 °C83 %1011.2 hPa16.1 kmSE (140°)7.4 km/hClear
10:55 PM26.7 °C23.5 °C82 %1011.2 hPa16.1 kmCalmClear
11:55 PM26.1 °C23.6 °C86 %1010.8 hPa16.1 kmSE (140°)5.6 km/hClear
Hourly data recorded from PGUA, located 0 kilometers away from Achang Bay, Guam







STORIES FROM OUR PARTNERS